News / 

AP-UT--SLC-UT 2nd Weather Roundup, UT

By The Associated Press | Posted - Mar. 5, 2014 at 11:21 p.m.



This archived news story is available only for your personal, non-commercial use. Information in the story may be outdated or superseded by additional information. Reading or replaying the story in its archived form does not constitute a republication of the story.

AP-UT--SLC-UT 2nd Weather Roundup

721

ASUS45 KSLC 060610

RWRUT

UTAH REGIONAL WEATHER ROUNDUP

NATIONAL WEATHER SERVICE SALT LAKE CITY UT

1100 PM MST WED MAR 05 2014

UTZ001>011-023>025-060700-

NORTHERN UTAH

CITY SKY/WX TMP DP RH WIND PRES REMARKS

HILL AFB PTCLDY 45 17 32 SE8 30.06S

LOGAN CLEAR 46 30 53 S6 30.04F

OGDEN PTCLDY 47 29 49 S10 30.05S

PROVO AIRPORT CLEAR 41 30 65 SE5 30.10F

SALT LAKE CITY MOCLDY 51 26 37 S7 30.05F

VERNAL CLEAR 35 26 69 W6 30.14S WCI 30

WENDOVER MOCLDY 43 34 70 CALM 30.03F

HEBER CITY CLEAR 32 25 74 SE3 30.13S

WEST JORDAN CLEAR 46 28 49 S7 30.07F

$$

UTZ012>022-026-027-060700-

SOUTHERN UTAH

CITY SKY/WX TMP DP RH WIND PRES REMARKS

BRYCE CANYON PTCLDY 27 22 81 CALM 30.25S

CEDAR CITY MOCLDY 39 13 34 S7 30.16R WCI 34

MILFORD MOCLDY 43 16 33 SW18 30.12S

MOAB/CYNLANDS CLEAR 40 28 62 SW3 30.15R

PRICE CLEAR 36 23 59 NE9 30.18S WCI 29

ST GEORGE CLEAR 52 28 40 E5 30.13S

$$

REGIONAL REPORTS COLORADO/ARIZONA

CITY SKY/WX TMP DP RH WIND PRES REMARKS

CRAIG, CO MOCLDY 31 26 82 NE3 30.17S

GRAND JUNCTION MOCLDY 40 27 59 E5 30.18S

RIFLE PTCLDY 34 26 72 E5 30.21S WCI 30

MONTROSE PTCLDY 39 24 55 SE13 30.24S WCI 31

CORTEZ MOCLDY 33 25 72 NE7 30.23S WCI 27

PAGE, AZ MOCLDY 48 24 39 NW3 30.17R

GRAND CANYON CLEAR 28 22 78 CALM 30.25S

KINGMAN CLEAR 47 32 56 S3 30.12S

FLAGSTAFF CLEAR 30 23 75 CALM 30.26S

$$

REGIONAL REPORTS NEVADA/IDAHO/WYOMING

CITY SKY/WX TMP DP RH WIND PRES REMARKS

LAS VEGAS, NV MOCLDY 62 31 31 SW6 30.03S

ELY MOCLDY 41 26 55 SW14 30.13F

ELKO CLOUDY 44 36 73 NE3 30.00F

POCATELLO, ID MOCLDY 49 33 54 S25G35 29.99S

BURLEY CLOUDY 50 33 52 S17G26 29.93F

EVANSTON, WY PTCLDY 35 20 54 SW18 30.09F WCI 24

ROCK SPRINGS CLEAR 36 24 62 SW13 30.09F WCI 27

$$

Delivered by Weather Underground Inc. Thu Mar 6 2014 1:10AM EST

Copyright © The Associated Press. All rights reserved. This material may not be published, broadcast, rewritten or redistributed.

The Associated Press

    SIGN UP FOR THE KSL.COM NEWSLETTER

    Catch up on the top news and features from KSL.com, sent weekly.
    By subscribing, you acknowledge and agree to KSL.com's Terms of Use and Privacy Policy.

    KSL Weather Forecast